Dillon, MT

1:00 PM MST on November 20, 2017 (GMT -0700)
Dillon

Weather History for KDLN - March, 2014

Change the Weather History Date:

Sunday, March 30, 2014

  Actual Average Record
Temperature  
Mean Temperature 37 °F 38 °F  
Max Temperature 44 °F 50 °F 71 °F (1966)
Min Temperature 30 °F 26 °F -6 °F (1936)
Degree Days  
Heating Degree Days 28    
Month to date heating degree days 889  
Since 1 July heating degree days 6669  
Cooling Degree Days 0    
Month to date cooling degree days 0  
Year to date cooling degree days 0  
Moisture  
Dew Point 26 °F    
Average Humidity 63    
Maximum Humidity 92    
Minimum Humidity 33    
Precipitation  
Precipitation 0.10 in 0.02 in 0.32 in (2017)
Month to date precipitation 0.34 0.53  
Year to date precipitation 0.57 1.05  
Snow  
Snow 0.00 in - - ()
Snow Depth 0.00 in    
Sea Level Pressure  
Sea Level Pressure 29.79 in    
Wind  
Wind Speed 8 mph (North)    
Max Wind Speed 20 mph    
Max Gust Speed 24 mph    
Visibility 7 miles    
Events Fog , Snow    
T = Trace of Precipitation, MM = Missing Value Source: NWS Daily Summary

Daily Weather History Graph

Daily Weather History Graph

Search for Another Location

Airport or City:

Trip Planner

Search our weather history database for the weather conditions in past years. The results will help you decide how hot, cold, wet, or windy it might be!

Date:

Astronomy

Mar. 30, 2014 Rise Set
Actual Time 7:14 AM MDT 7:55 PM MDT
Civil Twilight 6:44 AM MDT 8:25 PM MDT
Nautical Twilight 6:09 AM MDT 9:00 PM MDT
Astronomical Twilight 5:32 AM MDT 9:37 PM MDT
Moon 7:02 AM MDT (3/30) 8:14 PM MDT (3/30)
Length of Visible Light 13h 40m
Length of Day
12h 41m
Waning Crescent, 0% of the Moon is Illuminated
Mar 30
Waning Crescent
Mar 30
New
Apr 7
First Quarter
Apr 15
Full
Apr 22
Last Quarter

Hourly Weather History & Observations

Time (MDT) Temp. Windchill Dew Point Humidity Pressure Visibility Wind Dir Wind Speed Gust Speed Precip Events Conditions
12:53 AM 36.0 °F 33.3 °F 28.9 °F 76% 29.76 in 10.0 mi West 3.5 mph - N/A   Overcast
1:53 AM 36.0 °F 29.6 °F 30.0 °F 79% 29.73 in 10.0 mi SSW 8.1 mph - N/A   Overcast
2:53 AM 35.1 °F 29.3 °F 28.0 °F 76% 29.75 in 10.0 mi WSW 6.9 mph - N/A   Overcast
3:53 AM 34.0 °F 28.8 °F 28.0 °F 79% 29.73 in 10.0 mi NNE 5.8 mph - N/A   Overcast
4:53 AM 34.0 °F - 27.0 °F 75% 29.72 in 10.0 mi Calm Calm - N/A   Overcast
5:53 AM 32.0 °F 27.5 °F 27.0 °F 82% 29.72 in 10.0 mi SW 4.6 mph - N/A   Overcast
6:53 AM 30.0 °F 24.1 °F 27.0 °F 88% 29.74 in 10.0 mi NE 5.8 mph - N/A   Overcast
7:53 AM 33.1 °F 27.7 °F 28.9 °F 85% 29.73 in 10.0 mi ENE 5.8 mph - N/A   Overcast
8:53 AM 33.1 °F 27.7 °F 30.9 °F 92% 29.72 in 10.0 mi North 5.8 mph - 0.00 in   Overcast
9:53 AM 35.1 °F - 30.9 °F 85% 29.72 in 10.0 mi Calm Calm - N/A   Scattered Clouds
10:53 AM 37.0 °F 33.3 °F 30.0 °F 76% 29.71 in 10.0 mi NNW 4.6 mph - N/A   Mostly Cloudy
11:53 AM 39.0 °F 31.0 °F 24.1 °F 55% 29.70 in 10.0 mi North 13.8 mph - N/A   Mostly Cloudy
12:53 PM 41.0 °F 34.3 °F 21.0 °F 45% 29.68 in 10.0 mi NNE 11.5 mph - N/A   Overcast
1:53 PM 41.0 °F 33.9 °F 19.9 °F 43% 29.69 in 10.0 mi NE 12.7 mph - N/A   Overcast
2:53 PM 43.0 °F 36.0 °F 17.1 °F 35% 29.69 in 10.0 mi NNE 13.8 mph - N/A   Overcast
3:53 PM 43.0 °F 36.4 °F 16.0 °F 34% 29.69 in 10.0 mi North 12.7 mph - N/A   Scattered Clouds
4:53 PM 43.0 °F 36.0 °F 18.0 °F 37% 29.70 in 10.0 mi NNE 13.8 mph - N/A   Partly Cloudy
5:53 PM 42.1 °F 34.9 °F 16.0 °F 35% 29.72 in 10.0 mi NE 13.8 mph - N/A   Overcast
6:53 PM 41.0 °F 34.3 °F 17.1 °F 38% 29.75 in 10.0 mi NNE 11.5 mph - N/A   Scattered Clouds
7:53 PM 37.0 °F 28.5 °F 21.0 °F 52% 29.79 in 10.0 mi NE 13.8 mph - N/A   Clear
8:53 PM 34.0 °F 25.0 °F 26.1 °F 73% 29.85 in 10.0 mi NNE 12.7 mph 23.0 mph N/A   Clear
9:53 PM 33.1 °F 25.5 °F 27.0 °F 78% 29.89 in 10.0 mi NNE 9.2 mph - N/A   Overcast
10:08 PM 33.1 °F 26.1 °F 27.0 °F 78% 29.86 in 7.0 mi NNE 8.1 mph - N/A   Overcast
10:18 PM 32.0 °F 26.4 °F 28.0 °F 85% 29.87 in 2.5 mi NE 5.8 mph - 0.00 in Snow Light Snow
10:24 PM 32.0 °F 26.4 °F 28.0 °F 85% 29.87 in 1.8 mi NE 5.8 mph - 0.00 in Snow Light Snow
10:39 PM 30.9 °F 27.5 °F 30.0 °F 96% 29.87 in 1.0 mi NE 3.5 mph - 0.01 in Snow Light Snow
10:53 PM 30.9 °F 26.2 °F 28.9 °F 92% 29.92 in 1.2 mi NW 4.6 mph - 0.02 in Snow Light Snow
11:00 PM 30.9 °F 24.3 °F 28.9 °F 92% 29.88 in 2.0 mi NNW 6.9 mph - 0.00 in Snow Light Snow
11:14 PM 30.9 °F 25.2 °F 28.9 °F 92% 29.88 in 1.2 mi North 5.8 mph - 0.01 in Snow Light Snow
11:22 PM 30.9 °F 25.2 °F 28.9 °F 92% 29.89 in 0.8 mi NNW 5.8 mph - 0.02 in Snow Light Snow
11:37 PM 30.0 °F 25.2 °F 28.9 °F 96% 29.89 in 0.8 mi NW 4.6 mph - 0.04 in Snow Light Snow
11:53 PM 30.0 °F 25.2 °F 28.9 °F 96% 29.93 in 0.5 mi West 4.6 mph - 0.06 in Fog , Snow Snow
11:59 PM 30.0 °F 25.2 °F 28.9 °F 96% 29.89 in 1.0 mi WNW 4.6 mph - 0.00 in Snow Light Snow